Grand Island, NE

7:27 PM CDT on March 25, 2017 (GMT -0500)
Central Nebraska Regional

Weather History for KGRI - October, 2012

Change the Weather History Date:

Wednesday, October 24, 2012

  Actual Average Record
Temperature  
Mean Temperature 47 °F 49 °F  
Max Temperature 52 °F 61 °F 86 °F (1927)
Min Temperature 41 °F 37 °F 18 °F (1938)
Degree Days  
Heating Degree Days 18 16  
Month to date heating degree days 296 284  
Since 1 July heating degree days 366 399  
Cooling Degree Days 0 0  
Month to date cooling degree days 4 10  
Year to date cooling degree days 1507 1033  
Moisture  
Dew Point 47 °F    
Average Humidity 88    
Maximum Humidity 100    
Minimum Humidity 76    
Precipitation  
Precipitation 0.10 in 0.06 in 1.07 in (1997)
Month to date precipitation 0.62 1.53  
Year to date precipitation 9.20 24.53  
Snow  
Snow 0.00 in 0.00 in 0.90 in (1957)
Month to date snowfall 0.0 0.6  
Since 1 July snowfall 0.0 0.7  
Since 1 September snowfall 0.0 0.7  
Snow Depth 0.00 in    
Sea Level Pressure  
Sea Level Pressure 29.80 in    
Wind  
Wind Speed 15 mph (NNE)    
Max Wind Speed 26 mph    
Max Gust Speed 32 mph    
Visibility 3 miles    
Events Fog , Rain , Thunderstorm    
T = Trace of Precipitation, MM = Missing Value Source: NWS Daily Summary

Daily Weather History Graph

Daily Weather History Graph

Search for Another Location

Airport or City:

Trip Planner

Search our weather history database for the weather conditions in past years. The results will help you decide how hot, cold, wet, or windy it might be!

Date:

Astronomy

Oct. 24, 2012 Rise Set
Actual Time 7:55 AM CDT 6:38 PM CDT
Civil Twilight 7:27 AM CDT 7:06 PM CDT
Nautical Twilight 6:55 AM CDT 7:38 PM CDT
Astronomical Twilight 6:23 AM CDT 8:10 PM CDT
Moon 3:57 PM CDT (10/24) 2:49 AM CDT (10/24)
Length of Visible Light 11h 39m
Length of Day
10h 43m
Waxing Gibbous, 76% of the Moon is Illuminated
Oct 24
Waxing Gibbous
Oct 29
Full
Nov 6
Last Quarter
Nov 13
New
Nov 20
First Quarter

Hourly Weather History & Observations

Time (CDT) Temp. Windchill Dew Point Humidity Pressure Visibility Wind Dir Wind Speed Gust Speed Precip Events Conditions
12:53 AM 46.9 °F - 46.9 °F 100% 29.77 in 0.2 mi NNE 9.2 mph - N/A Fog Fog
1:37 AM 48.2 °F - 48.2 °F 100% 29.79 in 0.2 mi NNE 8.1 mph - N/A Fog Fog
1:53 AM 50.0 °F - 50.0 °F 100% 29.80 in 0.2 mi NE 9.2 mph - N/A Fog Fog
2:53 AM 51.1 °F - 51.1 °F 100% 29.81 in 0.2 mi NNE 12.7 mph - N/A Fog Fog
3:04 AM 50.0 °F - 50.0 °F 100% 29.80 in 0.2 mi NNE 12.7 mph - 0.00 in Fog Fog
3:53 AM 48.9 °F - 48.9 °F 100% 29.77 in 0.2 mi NNE 11.5 mph - 0.00 in Fog Fog
4:07 AM 50.0 °F - 50.0 °F 100% 29.77 in 0.5 mi NNE 10.4 mph - N/A Fog Fog
4:32 AM 50.0 °F - 50.0 °F 100% 29.77 in 1.2 mi NNE 11.5 mph - N/A   Overcast
4:53 AM 50.0 °F - 50.0 °F 100% 29.77 in 3.0 mi NNE 10.4 mph - N/A   Overcast
5:44 AM 51.8 °F - 51.8 °F 100% 29.78 in 1.8 mi NNE 15.0 mph 21.9 mph N/A   Overcast
5:53 AM 51.1 °F - 51.1 °F 100% 29.78 in 0.8 mi NNE 16.1 mph - N/A   Overcast
6:13 AM 51.8 °F - 51.8 °F 100% 29.79 in 1.0 mi North 12.7 mph 24.2 mph N/A   Overcast
6:31 AM 51.8 °F - 51.8 °F 100% 29.79 in 0.8 mi NNE 17.3 mph 23.0 mph N/A   Overcast
6:41 AM 51.8 °F - 51.8 °F 100% 29.79 in 1.2 mi NNE 13.8 mph 24.2 mph 0.00 in Rain Light Rain
6:53 AM 50.0 °F - 50.0 °F 100% 29.79 in 1.8 mi NNE 16.1 mph - 0.00 in   Overcast
7:26 AM 50.0 °F - 50.0 °F 100% 29.81 in 2.0 mi North 13.8 mph 23.0 mph N/A   Overcast
7:53 AM 48.9 °F - 48.9 °F 100% 29.83 in 1.5 mi North 13.8 mph - N/A   Overcast
8:53 AM 48.9 °F - 48.9 °F 100% 29.83 in 1.5 mi North 15.0 mph - 0.01 in   Overcast
9:53 AM 51.1 °F - 50.0 °F 96% 29.84 in 2.0 mi North 13.8 mph - N/A   Overcast
10:23 AM 51.8 °F - 50.0 °F 94% 29.83 in 3.0 mi North 15.0 mph - N/A   Overcast
10:53 AM 51.1 °F - 50.0 °F 96% 29.84 in 4.0 mi North 15.0 mph - N/A   Overcast
11:53 AM 50.0 °F - 48.9 °F 96% 29.85 in 5.0 mi North 13.8 mph - N/A   Overcast
12:53 PM 50.0 °F - 48.9 °F 96% 29.83 in 3.0 mi North 16.1 mph - N/A   Overcast
1:32 PM 50.0 °F - 48.2 °F 94% 29.80 in 1.0 mi North 16.1 mph - N/A   Overcast
1:53 PM 50.0 °F - 48.9 °F 96% 29.79 in 1.5 mi North 15.0 mph - N/A   Overcast
2:46 PM 51.8 °F - 48.2 °F 88% 29.80 in 1.5 mi North 13.8 mph - N/A   Overcast
2:53 PM 50.0 °F - 48.0 °F 93% 29.80 in 4.0 mi NNE 15.0 mph - N/A   Overcast
3:53 PM 50.0 °F - 46.9 °F 89% 29.81 in 4.0 mi NNE 11.5 mph - N/A   Overcast
4:28 PM 48.2 °F - 46.4 °F 93% 29.79 in 2.0 mi NNE 15.0 mph - N/A   Overcast
4:53 PM 48.9 °F - 46.9 °F 93% 29.80 in 2.0 mi NNE 12.7 mph - 0.00 in Rain Light Rain
5:30 PM 48.2 °F - 46.4 °F 93% 29.78 in 1.5 mi North 10.4 mph - 0.01 in Rain Light Rain
5:53 PM 48.0 °F - 46.9 °F 96% 29.80 in 1.5 mi North 11.5 mph - 0.01 in   Overcast
6:53 PM 48.9 °F - 46.0 °F 90% 29.80 in 5.0 mi NNE 12.7 mph - 0.01 in   Overcast
7:53 PM 46.4 °F 41.5 °F 44.6 °F 93% 29.81 in 10.0 mi NE 10.4 mph - N/A   Overcast
8:53 PM 48.0 °F - 43.0 °F 83% 29.83 in 10.0 mi NNE 13.8 mph - N/A   Overcast
9:53 PM 46.9 °F - 39.9 °F 77% 29.82 in 10.0 mi North 20.7 mph 26.5 mph N/A   Overcast
10:48 PM 46.4 °F 38.7 °F 37.4 °F 71% 29.80 in 10.0 mi North 20.7 mph 29.9 mph 0.02 in Thunderstorm Overcast
10:53 PM 45.0 °F 36.4 °F 37.9 °F 76% 29.81 in 8.0 mi North 23.0 mph 28.8 mph 0.04 in Rain , Thunderstorm Rain
11:17 PM 44.6 °F 36.9 °F 37.4 °F 76% 29.82 in 10.0 mi North 18.4 mph - 0.02 in Rain Light Rain
11:33 PM 44.6 °F 36.6 °F 37.4 °F 76% 29.79 in 10.0 mi North 19.6 mph - 0.02 in Thunderstorm Overcast
11:53 PM 42.1 °F 33.1 °F 37.0 °F 82% 29.82 in 9.0 mi North 20.7 mph - 0.04 in Rain , Thunderstorm Light Rain